Appleton, WI

10:52 AM CST on December 12, 2017 (GMT -0600)
Outagamie County Regional

Weather History for KATW - April, 2013

Change the Weather History Date:

Sunday, April 7, 2013

  Actual Average Record
Temperature  
Mean Temperature 40 °F -  
Max Temperature 46 °F 51 °F 75 °F (2001)
Min Temperature 33 °F 31 °F 17 °F (1972)
Degree Days  
Heating Degree Days 26    
Moisture  
Dew Point 33 °F    
Average Humidity 80    
Maximum Humidity 93    
Minimum Humidity 53    
Precipitation  
Precipitation 0.00 in - - ()
Sea Level Pressure  
Sea Level Pressure 29.77 in    
Wind  
Wind Speed 16 mph (West)    
Max Wind Speed 24 mph    
Max Gust Speed 30 mph    
Visibility 10 miles    
Events      
Averages and records for this station are not official NWS values.
T = Trace of Precipitation, MM = Missing Value Source: NWS Daily Summary

Daily Weather History Graph

Daily Weather History Graph

Search for Another Location

Airport or City:

Trip Planner

Search our weather history database for the weather conditions in past years. The results will help you decide how hot, cold, wet, or windy it might be!

Date:

Astronomy

Apr. 07, 2013 Rise Set
Actual Time 6:23 AM CDT 7:28 PM CDT
Civil Twilight 5:54 AM CDT 7:58 PM CDT
Nautical Twilight 5:18 AM CDT 8:34 PM CDT
Astronomical Twilight 4:41 AM CDT 9:11 PM CDT
Moon 4:47 AM CDT (4/7) 4:56 PM CDT (4/7)
Length of Visible Light 14h 04m
Length of Day
13h 05m
Waning Crescent, 8% of the Moon is Illuminated
Apr 7
Waning Crescent
Apr 10
New
Apr 18
First Quarter
Apr 25
Full
May 2
Last Quarter

Hourly Weather History & Observations

Time (CDT) Temp. Windchill Dew Point Humidity Pressure Visibility Wind Dir Wind Speed Gust Speed Precip Events Conditions
12:15 AM 46.4 °F 39.2 °F 44.6 °F 93% 29.50 in 10.0 mi West 18.4 mph 26.5 mph N/A   Overcast
12:35 AM 44.6 °F 36.1 °F 42.8 °F 93% 29.51 in 10.0 mi West 21.9 mph 26.5 mph N/A   Overcast
12:55 AM 42.8 °F 34.3 °F 41.0 °F 93% 29.53 in 10.0 mi West 19.6 mph - N/A   Overcast
1:15 AM 42.8 °F 34.0 °F 39.2 °F 87% 29.55 in 10.0 mi West 20.7 mph 27.6 mph N/A   Overcast
1:35 AM 41.0 °F 30.9 °F 37.4 °F 87% 29.56 in 10.0 mi WNW 24.2 mph 27.6 mph N/A   Overcast
1:55 AM 41.0 °F 31.4 °F 37.4 °F 87% 29.57 in 10.0 mi West 21.9 mph 25.3 mph N/A   Overcast
2:55 AM 37.4 °F 27.2 °F 35.6 °F 93% 29.60 in 10.0 mi WNW 19.6 mph 25.3 mph N/A   Overcast
3:15 AM 37.4 °F 27.2 °F 33.8 °F 87% 29.62 in 10.0 mi WNW 19.6 mph 26.5 mph N/A   Overcast
3:35 AM 37.4 °F 28.5 °F 33.8 °F 87% 29.63 in 10.0 mi WNW 15.0 mph 23.0 mph N/A   Overcast
3:55 AM 35.6 °F 24.8 °F 32.0 °F 87% 29.64 in 10.0 mi WNW 19.6 mph 29.9 mph N/A   Overcast
4:15 AM 35.6 °F 24.8 °F 32.0 °F 87% 29.66 in 10.0 mi WNW 19.6 mph 24.2 mph N/A   Overcast
4:35 AM 35.6 °F 25.9 °F 32.0 °F 87% 29.67 in 10.0 mi WNW 16.1 mph - N/A   Overcast
4:55 AM 35.6 °F 25.5 °F 32.0 °F 87% 29.68 in 10.0 mi WNW 17.3 mph - N/A   Overcast
5:15 AM 35.6 °F 25.5 °F 32.0 °F 87% 29.70 in 10.0 mi WNW 17.3 mph 21.9 mph N/A   Overcast
5:20 AM 35.6 °F 25.5 °F 30.2 °F 81% 29.70 in 10.0 mi WNW 17.3 mph 23.0 mph N/A   Overcast
5:45 AM 35.6 °F 26.2 °F 30.2 °F 81% 29.71 in 10.0 mi WNW 15.0 mph - N/A   Overcast
6:45 AM 35.6 °F 26.6 °F 28.4 °F 75% 29.76 in 10.0 mi WNW 13.8 mph 20.7 mph N/A   Overcast
7:45 AM 35.6 °F 25.2 °F 28.4 °F 75% 29.80 in 10.0 mi WNW 18.4 mph 21.9 mph N/A   Mostly Cloudy
8:45 AM 37.4 °F 27.5 °F 30.2 °F 75% 29.83 in 10.0 mi WNW 18.4 mph 25.3 mph N/A   Scattered Clouds
9:45 AM 39.2 °F 30.8 °F 26.6 °F 61% 29.86 in 10.0 mi NW 15.0 mph 20.7 mph N/A   Mostly Cloudy
10:45 AM 39.2 °F 31.2 °F 28.4 °F 65% 29.89 in 10.0 mi WNW 13.8 mph - N/A   Mostly Cloudy
11:45 AM 39.2 °F 33.0 °F 30.2 °F 70% 29.92 in 10.0 mi WNW 9.2 mph - N/A   Overcast
12:45 PM 39.2 °F 33.6 °F 30.2 °F 70% 29.93 in 10.0 mi West 8.1 mph - N/A   Mostly Cloudy
2:45 PM 46.4 °F 42.9 °F 30.2 °F 53% 29.94 in 10.0 mi West 6.9 mph - N/A   Mostly Cloudy
3:45 PM 46.4 °F 44.3 °F 30.2 °F 53% 29.93 in 10.0 mi Variable 4.6 mph - N/A   Scattered Clouds
5:45 PM 46.4 °F - 32.0 °F 57% 29.94 in 10.0 mi Calm Calm - N/A   Scattered Clouds
6:45 PM 42.8 °F 37.5 °F 33.8 °F 70% 29.94 in 10.0 mi South 9.2 mph - N/A   Partly Cloudy
7:45 PM 39.2 °F 35.0 °F 32.0 °F 75% 29.95 in 10.0 mi South 5.8 mph - N/A   Partly Cloudy
9:45 PM 37.4 °F 34.9 °F 32.0 °F 81% 29.96 in 10.0 mi Variable 3.5 mph - N/A   Scattered Clouds
10:45 PM 37.4 °F 34.9 °F 32.0 °F 81% 29.96 in 10.0 mi Variable 3.5 mph - N/A   Scattered Clouds
10:55 PM 35.6 °F 29.9 °F 32.0 °F 87% 29.94 in 10.0 mi SE 6.9 mph - N/A   Clear
11:15 PM 33.8 °F 26.4 °F 32.0 °F 93% 29.93 in 10.0 mi SE 9.2 mph - N/A   Clear
11:35 PM 33.8 °F 25.8 °F 32.0 °F 93% 29.92 in 10.0 mi SE 10.4 mph - N/A   Clear
11:55 PM 33.8 °F 26.4 °F 30.2 °F 87% 29.92 in 10.0 mi SE 9.2 mph - N/A   Clear